Kennedale's Hourly Summary for Thursday, March 16, 2017
Hour Temp
(f)
RH
(%)
Solar Rad.
(MJ/m2)
Rainfall
(in)
Wind
(mph)
3/16/2017 12:00 AM 54 71 0 0 6.63
3/16/2017 1:00 AM 53 73 0 0 6.94
3/16/2017 2:00 AM 53 75 0 0 9.29
3/16/2017 3:00 AM 53 79 0 0 10.35
3/16/2017 4:00 AM 53 87 0 0 11.86
3/16/2017 5:00 AM 55 89 0 0 10.96
3/16/2017 6:00 AM 56 90 0 0 12.25
3/16/2017 7:00 AM 57 90 0 0 10.85
3/16/2017 8:00 AM 57 90 0.09 0 9.73
3/16/2017 9:00 AM 58 89 0.31 0 10.51
3/16/2017 10:00 AM 58 88 0.48 0 11.52
3/16/2017 11:00 AM 60 85 0.67 0 12.03
3/16/2017 12:00 PM 62 80 1.08 0 11.52
3/16/2017 1:00 PM 65 76 1.1 0 11.41
3/16/2017 2:00 PM 66 74 0.9 0 11.41
3/16/2017 3:00 PM 68 72 0.8 0 11.91
3/16/2017 4:00 PM 70 69 0.7 0 12.24
3/16/2017 5:00 PM 71 66 0.89 0 13.54
3/16/2017 6:00 PM 71 68 0.57 0 12.97
3/16/2017 7:00 PM 70 69 0.08 0 9.28
3/16/2017 8:00 PM 69 73 0 0 8.72
3/16/2017 9:00 PM 68 75 19.95 0 9.12
3/16/2017 10:00 PM 67 76 19.95 0 10.18
3/16/2017 11:00 PM 67 76 19.95 0 11.07
Data Summary 61 78 67.52 0.00 10.68